Retour au catalogue

STARLINK-5361

ActifCommunicationsVLEO
NORAD 57142·PAYLOAD·🇺🇸 United States

Lancé Jun 23, 2023 depuis Cape Canaveral Space Force Station

Loading…

Prochains Passages (prochaines 24 heures)

TLE

FraisSource: CelesTrak SupGP

Époque: Sep 15, 2026, 01:50 UTC

1 57142C 23090AT  26258.07687500  .00005460  00000+0  19776-3 0  2584
2 57142  43.0029 273.5422 0001284 292.8930 314.3333 15.27574664    10

Suivez STARLINK-5361 en temps réel avec AllMySat

Download on the App Store